Flag for U.S.A. Weather past 2 weeks in Manhattan, Kansas, U.S.A.

Now
44 °F

Light rain. Fog.


Feels Like: 39 °F
Forecast: 37 / 45 °F
Wind: 10 mph from South

Location: Manhattan Municipal Airport

Current Time: Dec 22, 2014 at 4:02:47 AM

Latest Report: Dec 22, 2014 at 2:52 AM


Visibility: 6 mi

Pressure: 29.60 "Hg

Humidity: 93%

Dew point: 42 °F

Location of ManhattanLocation

Historic Weather in Manhattan — Graph

°F

Manhattan temperature yesterday

Maximum temperature yesterday: 45 °F (at 1:52 PM)
Minimum temperature yesterday: 37 °F (at 3:52 AM)
Average temperature yesterday: 43 °F

Past Weeks' High & Low Weather Summary

 TemperatureHumidityPressure
High60 °F (Dec 14, 2:52 PM)100% (Dec 7, 4:52 AM)30.50 "Hg (Dec 7, 4:52 AM)
Low24 °F (Dec 16, 8:52 PM)37% (Dec 8, 1:52 PM)29.52 "Hg (Dec 15, 6:52 AM)
Average39 °F87%30.16 "Hg
* Reported Dec 7 2:52 AM — Dec 22 2:52 AM, Manhattan, Weather by CustomWeather, © 2014

Note: Actual official high and low records may vary slightly from our data, if they occured in-between our weather recording intervals... More about our weather records

Advertising

Manhattan weather history for previous 24 hours

 ConditionsComfort  
Time TempWeatherWind HumidityBarometerVisibility
2:52 AM
Dec 22
44 °FLight rain. Fog.10 mph93%29.60 "Hg6 mi
1:52 AM44 °FLight rain. Fog.9 mph93%29.62 "Hg5 mi
12:52 AM44 °FFog.12 mph93%29.65 "Hg4 mi
11:52 PM
Dec 21
44 °FFog.13 mph93%29.67 "Hg4 mi
10:52 PM44 °FFog.15 mph96%29.68 "Hg6 mi
9:52 PM44 °FFog.13 mph96%29.69 "Hg6 mi
8:52 PM44 °FLow clouds.15 mph96%29.70 "Hg7 mi
7:52 PM44 °FFog.16 mph93%29.71 "Hg6 mi
6:52 PM44 °FOvercast.16 mph93%29.72 "Hg8 mi
5:52 PM44 °FFog.12 mph96%29.74 "Hg6 mi
4:52 PM44 °FFog.13 mph93%29.75 "Hg5 mi
3:52 PM44 °FOvercast.10 mph93%29.78 "Hg10 mi
2:52 PM45 °FOvercast.10 mph86%29.78 "Hg10 mi
1:52 PM45 °FOvercast.15 mph82%29.80 "Hg10 mi
12:52 PM44 °FOvercast.13 mph82%29.84 "Hg9 mi
11:52 AM43 °FOvercast.15 mph86%29.89 "Hg7 mi
10:52 AM42 °FFog.16 mph89%29.93 "Hg6 mi
9:52 AM42 °FOvercast.12 mph85%29.95 "Hg7 mi
8:52 AM41 °FFog.9 mph89%29.96 "Hg6 mi
7:52 AM41 °FOvercast.14 mph89%29.98 "Hg9 mi
6:52 AM42 °FOvercast.13 mph82%29.98 "Hg10 mi
5:52 AM40 °FOvercast.7 mph89%29.99 "Hg9 mi
4:52 AM38 °FPassing clouds.7 mph90%30.00 "Hg8 mi
Weather by CustomWeather, © 2014

See weather overviewHow to use our weather pages